When you browse on this site, cookies collect data to enhance your experience and personalize the content and advertising you see.
Visit our Privacy Policy to learn more. By continuing to use the site, you agree to this use of cookies and data.
  • In United Kingdom
  • List of Countries
  • For 7 days
  • Water Temperature
  • Satellite Maps
  • Weather Map
  • Weather Widgets
  • user-avatar
    Login

    Hourly Weather Szekesfehervar

    Today, 19 April, Friday

    Time Temperature Precipitation Wind Pressure Humidity
    00:00 +11°C° 0 mm 1 mps 761 mmHg 72%
    01:00 +11°C° 0 mm 1 mps 761 mmHg 73%
    02:00 +11°C° 0 mm 1 mps 761 mmHg 75%
    03:00 +10°C° 0 mm 1 mps 761 mmHg 76%
    04:00 +10°C° 0 mm 1 mps 761 mmHg 78%
    05:00 +11°C° 0 mm 1 mps 761 mmHg 74%
    06:00 +12°C° 0 mm 1 mps 761 mmHg 70%
    07:00 +13°C° 0 mm 1 mps 761 mmHg 66%
    08:00 +15°C° 0 mm 1 mps 761 mmHg 59%
    09:00 +17°C° 0 mm 2 mps 761 mmHg 51%
    10:00 +18°C° 0 mm 2 mps 761 mmHg 44%
    11:00 +19°C° 0 mm 2 mps 761 mmHg 43%
    12:00 +20°C° 0 mm 3 mps 761 mmHg 41%
    13:00 +21°C° 0 mm 3 mps 761 mmHg 40%
    14:00 +21°C° 0 mm 3 mps 760 mmHg 41%
    15:00 +21°C° 0 mm 3 mps 760 mmHg 43%
    16:00 +21°C° 0 mm 4 mps 760 mmHg 45%
    17:00 +19°C° 0 mm 3 mps 760 mmHg 49%
    18:00 +18°C° 0 mm 2 mps 760 mmHg 54%
    19:00 +16°C° 0 mm 2 mps 760 mmHg 58%
    20:00 +16°C° 0 mm 2 mps 760 mmHg 58%
    21:00 +15°C° 0 mm 2 mps 760 mmHg 57%
    22:00 +14°C° 0 mm 3 mps 761 mmHg 56%
    23:00 +12°C° 0 mm 3 mps 761 mmHg 57%

    Tomorrow, 20 April, Saturday

    Time Temperature Precipitation Wind Pressure Humidity
    00:00 +11°C° 0 mm 3 mps 761 mmHg 58%
    01:00 +10°C° 0 mm 2 mps 761 mmHg 59%
    02:00 +9°C° 0 mm 2 mps 761 mmHg 60%
    03:00 +8°C° 0 mm 2 mps 761 mmHg 60%
    04:00 +9°C° 0 mm 1 mps 761 mmHg 61%
    05:00 +10°C° 0 mm 1 mps 761 mmHg 59%
    06:00 +11°C° 0 mm 1 mps 761 mmHg 58%
    07:00 +12°C° 0 mm 1 mps 761 mmHg 56%
    08:00 +14°C° 0 mm 2 mps 761 mmHg 50%
    09:00 +15°C° 0 mm 2 mps 761 mmHg 45%
    10:00 +17°C° 0 mm 3 mps 761 mmHg 40%
    11:00 +17°C° 0 mm 3 mps 761 mmHg 38%
    12:00 +18°C° 0 mm 2 mps 761 mmHg 36%
    13:00 +19°C° 0 mm 2 mps 760 mmHg 34%
    14:00 +19°C° 0 mm 2 mps 760 mmHg 34%
    15:00 +20°C° 0 mm 1 mps 759 mmHg 34%
    16:00 +20°C° 0 mm 1 mps 759 mmHg 34%
    17:00 +18°C° 0 mm 1 mps 758 mmHg 39%
    18:00 +15°C° 0 mm 1 mps 758 mmHg 44%
    19:00 +14°C° 0 mm 1 mps 758 mmHg 49%
    20:00 +13°C° 0 mm 1 mps 758 mmHg 52%
    21:00 +12°C° 0 mm 1 mps 758 mmHg 54%
    22:00 +12°C° 0 mm 2 mps 758 mmHg 56%
    23:00 +10°C° 0 mm 2 mps 758 mmHg 56%

    Day after tomorrow, 21 April, Sunday

    Time Temperature Precipitation Wind Pressure Humidity
    00:00 +10°C° 0 mm 2 mps 758 mmHg 57%
    01:00 +9°C° 0 mm 2 mps 757 mmHg 58%
    02:00 +9°C° 0 mm 2 mps 757 mmHg 59%
    03:00 +9°C° 0 mm 2 mps 757 mmHg 60%
    04:00 +9°C° 0 mm 2 mps 756 mmHg 61%
    05:00 +10°C° 0 mm 2 mps 756 mmHg 61%
    06:00 +12°C° 0 mm 2 mps 756 mmHg 60%
    07:00 +13°C° 0 mm 2 mps 756 mmHg 60%
    08:00 +15°C° 0 mm 2 mps 756 mmHg 54%
    09:00 +17°C° 0 mm 2 mps 756 mmHg 48%
    10:00 +19°C° 0 mm 2 mps 756 mmHg 42%
    11:00 +19°C° 0 mm 2 mps 755 mmHg 39%
    12:00 +20°C° 0 mm 2 mps 755 mmHg 37%
    13:00 +20°C° 0 mm 2 mps 754 mmHg 35%
    14:00 +20°C° 0 mm 2 mps 754 mmHg 35%
    15:00 +20°C° 0 mm 2 mps 753 mmHg 35%
    16:00 +20°C° 0 mm 2 mps 753 mmHg 35%
    17:00 +19°C° 0 mm 1 mps 753 mmHg 41%
    18:00 +16°C° 0 mm 1 mps 753 mmHg 46%
    19:00 +15°C° 0 mm 1 mps 752 mmHg 52%
    20:00 +14°C° 0 mm 1 mps 752 mmHg 54%
    21:00 +13°C° 0 mm 1 mps 753 mmHg 55%
    22:00 +13°C° 0 mm 1 mps 753 mmHg 57%
    23:00 +12°C° 0 mm 1 mps 753 mmHg 58%

    22 April, Monday

    Time Temperature Precipitation Wind Pressure Humidity
    00:00 +12°C° 0 mm 1 mps 753 mmHg 59%
    01:00 +11°C° 0 mm 1 mps 752 mmHg 60%
    02:00 +11°C° 0 mm 1 mps 752 mmHg 62%
    03:00 +9°C° 0 mm 2 mps 752 mmHg 63%
    04:00 +9°C° 0 mm 2 mps 752 mmHg 64%
    05:00 +10°C° 0 mm 2 mps 752 mmHg 64%
    06:00 +12°C° 0 mm 2 mps 752 mmHg 63%
    07:00 +12°C° 0 mm 3 mps 752 mmHg 63%
    08:00 +14°C° 0 mm 4 mps 752 mmHg 57%
    09:00 +16°C° 0 mm 5 mps 751 mmHg 52%
    10:00 +19°C° 0 mm 6 mps 751 mmHg 46%
    11:00 +19°C° 0 mm 6 mps 751 mmHg 44%
    12:00 +20°C° 0 mm 6 mps 750 mmHg 43%
    13:00 +21°C° 0 mm 7 mps 750 mmHg 41%
    14:00 +21°C° 0 mm 6 mps 750 mmHg 43%
    15:00 +21°C° 0 mm 6 mps 749 mmHg 45%
    16:00 +20°C° 0 mm 6 mps 749 mmHg 46%
    17:00 +19°C° 0 mm 5 mps 749 mmHg 53%
    18:00 +17°C° 0 mm 5 mps 748 mmHg 59%
    19:00 +15°C° 0 mm 4 mps 748 mmHg 65%
    20:00 +15°C° 0 mm 5 mps 748 mmHg 64%
    21:00 +15°C° 0 mm 6 mps 749 mmHg 62%
    22:00 +15°C° 0 mm 7 mps 749 mmHg 61%
    23:00 +14°C° 0 mm 6 mps 749 mmHg 61%

    23 April, Tuesday

    Time Temperature Precipitation Wind Pressure Humidity
    00:00 +13°C° 0 mm 6 mps 749 mmHg 61%
    01:00 +13°C° 0 mm 6 mps 748 mmHg 62%
    02:00 +13°C° 0 mm 6 mps 748 mmHg 63%
    03:00 +11°C° 0 mm 6 mps 748 mmHg 65%
    04:00 +11°C° 0 mm 6 mps 749 mmHg 67%
    05:00 +11°C° 0.5 mm 7 mps 749 mmHg 74%
    06:00 +10°C° 0.5 mm 8 mps 749 mmHg 80%
    07:00 +10°C° 0.5 mm 8 mps 749 mmHg 86%
    08:00 +10°C° 0 mm 8 mps 749 mmHg 82%
    09:00 +10°C° 0 mm 8 mps 749 mmHg 78%
    10:00 +11°C° 0 mm 8 mps 749 mmHg 74%
    11:00 +12°C° 0 mm 8 mps 749 mmHg 70%
    12:00 +15°C° 0 mm 9 mps 749 mmHg 65%
    13:00 +16°C° 0 mm 9 mps 749 mmHg 61%
    14:00 +16°C° 0 mm 8 mps 749 mmHg 63%
    15:00 +15°C° 0 mm 7 mps 749 mmHg 66%
    16:00 +14°C° 0 mm 6 mps 748 mmHg 68%
    17:00 +14°C° 0.1 mm 6 mps 748 mmHg 70%
    18:00 +13°C° 0.1 mm 6 mps 748 mmHg 72%
    19:00 +13°C° 0.1 mm 6 mps 748 mmHg 74%
    20:00 +13°C° 0.1 mm 6 mps 749 mmHg 75%
    21:00 +11°C° 0.1 mm 6 mps 749 mmHg 77%
    22:00 +11°C° 0.1 mm 6 mps 749 mmHg 78%
    23:00 +12°C° 0 mm 5 mps 749 mmHg 78%

    24 April, Wednesday

    Time Temperature Precipitation Wind Pressure Humidity
    00:00 +10°C° 0 mm 5 mps 749 mmHg 78%
    01:00 +10°C° 0 mm 5 mps 749 mmHg 78%
    02:00 +10°C° 0 mm 5 mps 749 mmHg 80%
    03:00 +9°C° 0 mm 5 mps 750 mmHg 81%
    04:00 +9°C° 0 mm 5 mps 750 mmHg 82%
    05:00 +10°C° 0 mm 5 mps 750 mmHg 83%
    06:00 +10°C° 0 mm 6 mps 751 mmHg 85%
    07:00 +10°C° 0 mm 6 mps 751 mmHg 86%
    08:00 +11°C° 0 mm 6 mps 751 mmHg 82%
    09:00 +13°C° 0 mm 6 mps 752 mmHg 78%
    10:00 +14°C° 0 mm 6 mps 752 mmHg 73%
    11:00 +16°C° 0 mm 6 mps 752 mmHg 70%
    12:00 +17°C° 0 mm 6 mps 752 mmHg 67%
    13:00 +20°C° 0 mm 6 mps 752 mmHg 63%
    14:00 +20°C° 0 mm 6 mps 752 mmHg 63%
    15:00 +20°C° 0 mm 5 mps 752 mmHg 63%
    16:00 +21°C° 0 mm 5 mps 751 mmHg 62%
    17:00 +20°C° 0 mm 5 mps 752 mmHg 68%
    18:00 +18°C° 0 mm 4 mps 752 mmHg 73%
    19:00 +17°C° 0 mm 4 mps 752 mmHg 78%
    20:00 +15°C° 0 mm 4 mps 752 mmHg 79%
    21:00 +15°C° 0 mm 4 mps 752 mmHg 80%
    22:00 +14°C° 0 mm 4 mps 753 mmHg 80%
    23:00 +13°C° 0 mm 4 mps 753 mmHg 82%
    Show more